Location: São Paulo
(23.5507°S, 46.6334°W)
Time: 13:32:14
(UTC-03:00)

Tiros 1 - Pass Details

Date: 10 February 2026
Orbit: 618 x 649 km, 48.4° (Epoch: 11 March)

Event Time Altitude Azimuth Distance (km) Brightness Sun altitude
Rises 07:09:41 0° 228° (SW) 2,969 10.2 16.7°
Reaches altitude 10° 07:12:03 10° 231° (SW) 2,051 9.4 17.2°
Maximum altitude 07:16:44 66° 312° (NW) 702 7.4 18.3°
Drops below altitude 10° 07:21:20 10° 34° (NE) 2,012 10.1 19.3°
Sets 07:23:39 0° 37° (NE) 2,909 10.9 19.8°
